Location: ?????
(38.3715°N, 23.0573°E)
Time: 09:17:57
(UTC+00:00)

Cosmos 1656 - Pass Details

Date: 03 August 2024
Orbit: 796 x 850 km, 71.1° (Epoch: 14 September)

Event Time Altitude Azimuth Distance (km) Brightness Sun altitude
Exits shadow 21:11:01 59° 348° (NNW) 940 4.1 -31.1°
Drops below altitude 10° 21:15:41 10° 18° (NNE) 2,433 6.6 -31.5°
Sets 21:18:09 0° 21° (NNE) 3,378 7.5 -31.7°
